Wind_Speed
12 11 10 9 5 4 2 3 5 9 5 13 11 11 14 8 10 2 6 7 6 4 5 3 4 4 6 7 9 11 12 12 11 11 12 12 12 12 13 13 13 11 10 8 7 5 4 3 4
12 11 11 10 7 5 0 3 6 4 4 9 10 14 11 10 6 9 7 7 5 5 5 4 4 4 7 8 9 12 13 13 12 12 11 12 13 13 13 13 13 12 10 8 6 4 2 0 2
12 12 11 6 8 3 2 4 4 3 1 4 5 7 10 14 12 10 9 8 5 4 5 2 2 3 7 10 12 14 15 15 15 14 13 12 12 13 13 13 13 11 10 8 6 4 3 2 3
12 11 11 8 4 5 1 4 7 4 4 7 11 8 9 10 10 10 9 7 6 4 3 2 2 5 7 10 13 15 17 18 18 17 15 14 13 13 13 13 13 11 11 9 8 7 6 5 5
12 12 13 6 5 3 3 6 3 3 8 10 15 13 11 12 12 13 11 10 9 7 4 5 6 8 10 11 14 16 18 19 20 19 18 16 15 15 15 14 14 14 13 11 10 10 9 9 7
13 13 8 11 7 5 5 5 3 1 5 10 10 13 11 11 12 12 11 10 8 7 7 7 7 10 13 13 14 16 18 20 22 22 21 20 18 18 17 16 17 16 15 14 13 13 13 13 10
13 13 10 5 4 7 4 3 1 3 5 4 8 12 11 10 9 8 9 11 12 12 10 10 8 11 14 14 14 15 17 20 22 24 24 23 22 20 20 19 19 18 18 17 16 16 16 16 14
14 13 8 4 5 6 3 3 3 3 4 9 11 12 11 11 12 11 9 8 8 8 10 11 13 12 13 11 14 16 17 19 22 25 26 26 26 24 23 22 21 20 21 20 19 19 19 19 17
14 10 6 5 4 4 4 5 5 5 4 7 12 12 14 15 14 14 13 14 13 12 11 12 14 16 15 18 13 12 15 19 21 24 27 29 29 27 26 24 23 22 22 21 21 21 21 20 19
10 6 4 5 5 6 6 7 7 8 7 8 10 11 15 16 18 20 21 22 23 23 21 17 14 17 19 20 20 17 14 14 19 23 25 29 30 30 28 27 26 24 23 22 22 22 22 21 20
9 6 6 5 8 8 8 8 10 13 11 17 17 17 21 21 21 23 26 29 26 27 27 26 23 22 21 21 22 22 23 21 18 21 25 28 30 32 32 31 29 27 25 23 22 22 22 22 21
7 10 10 9 8 11 13 16 16 8 6 3 2 4 8 5 4 4 4 6 9 13 11 21 23 27 27 27 27 28 29 29 30 27 25 29 29 31 33 33 31 29 27 25 24 24 24 23 23
10 9 9 8 10 12 7 8 3 4 7 8 8 9 8 10 8 8 8 6 2 1 5 6 11 24 31 31 30 30 31 31 31 31 30 30 31 31 31 33 33 31 29 27 26 26 26 25 24
9 8 5 3 2 1 1 3 5 8 11 13 14 14 15 14 12 12 13 12 11 9 9 10 10 10 16 20 32 33 30 31 34 34 33 31 33 32 32 32 33 33 31 29 29 28 28 27 26
8 9 9 3 7 2 5 1 6 10 12 13 14 13 15 16 20 18 19 22 20 17 16 16 17 18 16 17 19 26 34 31 31 33 34 34 34 38 33 32 33 33 32 32 31 31 31 29 27
3 3 5 2 11 9 9 8 12 14 16 17 19 21 21 19 19 23 24 25 27 27 24 24 24 24 24 22 19 19 23 34 33 33 33 34 32 35 40 34 34 34 34 34 33 33 32 30 28
6 5 7 7 11 14 12 15 18 21 23 23 21 19 19 21 23 22 24 28 28 27 30 29 31 31 31 29 28 26 23 25 29 35 37 35 32 33 38 41 35 34 35 35 34 33 34 32 30
4 4 7 14 13 13 15 16 15 18 17 12 12 15 18 18 18 20 21 23 25 30 33 32 31 32 33 33 34 34 34 31 28 29 33 38 39 35 33 37 39 36 36 36 35 35 34 32 30
8 7 8 11 11 17 18 17 20 18 14 12 13 18 17 18 19 22 23 24 25 31 32 33 32 32 32 34 37 40 40 38 34 29 29 32 38 42 39 36 35 41 37 36 35 35 35 33 32
6 7 10 12 15 17 18 24 18 12 16 17 18 17 17 18 20 24 26 29 28 32 33 35 37 37 37 39 40 43 43 44 40 37 33 32 31 37 43 39 37 30 38 38 38 37 37 35 35
6 5 9 15 21 21 21 13 16 18 17 14 12 14 16 22 25 28 30 33 37 41 44 45 45 46 45 47 49 51 52 50 48 44 39 35 33 34 40 44 41 39 30 39 41 39 39 36 36
6 8 12 17 22 18 13 5 13 13 14 15 17 22 26 28 29 31 32 35 35 40 41 44 49 49 51 50 48 48 56 57 53 49 45 40 37 34 35 41 44 44 42 41 41 40 39 37 38
6 11 12 18 19 11 3 4 6 8 12 16 19 20 24 30 33 33 34 35 34 38 38 35 33 34 36 40 43 44 45 56 58 54 51 46 42 35 32 35 42 42 36 37 40 41 40 40 38
8 9 17 19 9 2 3 5 10 7 8 13 19 25 28 37 36 38 38 37 34 34 31 30 31 32 35 36 37 39 41 45 60 58 54 51 48 42 34 34 39 40 42 38 39 44 42 39 38
8 10 5 4 3 4 3 11 6 10 12 18 24 30 37 39 40 40 38 36 35 28 26 28 31 32 36 38 38 38 38 37 41 59 59 55 52 48 42 34 34 40 41 38 39 42 44 40 39
5 5 1 4 2 6 15 5 4 13 17 20 25 36 38 41 42 41 36 35 33 27 25 28 32 32 33 38 38 37 40 38 38 35 50 58 54 50 43 38 35 38 43 43 40 41 42 41 38
3 4 2 3 4 3 5 7 18 14 16 22 33 36 39 44 43 39 34 35 36 32 30 33 35 35 35 37 40 41 41 42 40 38 39 50 58 54 46 39 39 40 45 48 45 46 46 42 37
5 4 3 5 2 4 7 12 10 18 19 31 38 41 44 43 42 38 36 34 35 36 36 35 35 38 40 45 42 42 45 42 37 37 42 47 48 55 48 41 42 43 40 45 48 41 42 40 39
1 8 6 6 3 2 3 7 20 13 26 35 40 40 41 44 39 39 38 36 36 35 32 34 38 39 42 40 39 34 41 38 36 34 36 43 48 47 46 41 42 40 38 41 42 42 42 46 49
3 5 9 5 2 9 9 16 5 24 31 35 37 41 41 38 38 38 39 37 36 35 36 37 42 40 38 37 34 30 23 31 34 37 33 31 32 38 42 41 40 35 38 39 40 36 38 41 44
Wind_Direction
230 225 225 225 218 215 195 122 30 12 89 73 89 141 181 211 176 266 151 166 153 126 93 94 105 187 195 200 211 216 212 209 210 207 199 196 197 192 183 176 176 174 169 159 142 126 100 70 46
224 223 224 226 233 224 344 60 331 39 37 103 92 123 131 147 133 139 149 155 158 150 132 123 113 181 205 201 214 223 225 223 217 216 215 207 203 204 199 191 190 187 186 179 168 160 143 64 356
219 215 216 220 233 205 117 320 342 165 341 170 168 158 146 140 143 149 168 166 162 148 117 111 149 203 221 215 207 219 227 227 225 222 221 221 216 214 210 207 205 202 199 200 201 204 207 247 296
219 211 217 217 152 103 337 281 322 294 208 187 174 186 186 173 164 180 184 191 206 217 178 172 240 253 233 233 226 217 221 228 229 226 225 225 225 224 222 219 218 216 215 216 224 236 244 253 274
218 216 217 207 207 162 40 6 354 128 172 170 176 187 193 185 190 197 200 207 215 229 239 240 239 237 242 238 237 234 227 226 230 233 231 226 227 227 226 224 224 225 223 226 232 243 255 264 275
219 220 218 217 192 118 99 57 42 90 152 182 202 220 197 192 209 204 214 230 246 260 272 281 266 237 235 240 243 243 242 237 232 232 234 233 229 229 229 225 226 227 229 230 236 244 257 268 274
224 224 224 193 139 162 161 120 148 131 148 163 171 198 209 209 221 251 264 267 264 261 259 270 275 245 232 232 239 248 250 249 245 239 236 235 234 231 230 229 228 227 229 233 237 245 254 265 272
225 229 231 212 193 141 167 195 170 144 126 171 188 189 203 215 230 240 245 255 266 264 255 255 268 260 237 229 241 242 244 248 250 249 244 238 236 234 233 232 230 230 230 232 237 244 251 260 267
227 228 227 202 184 233 247 220 222 217 188 177 197 223 220 234 244 256 260 258 255 255 252 241 251 263 243 228 212 224 240 248 249 247 248 247 243 238 237 236 235 233 233 234 236 242 249 255 263
217 220 222 180 223 265 299 289 306 275 240 244 240 237 232 241 259 267 273 275 278 273 265 261 251 248 254 249 236 230 227 240 245 251 252 249 249 247 241 238 237 236 235 236 236 240 247 252 257
227 203 182 192 247 285 307 325 304 312 284 253 252 248 254 259 265 269 271 277 285 280 272 265 264 257 256 258 255 258 256 246 250 252 247 248 248 247 247 244 242 241 239 239 239 241 244 250 255
244 242 240 256 286 297 290 299 294 313 48 52 205 235 240 245 236 246 256 322 339 353 335 262 259 255 254 255 260 256 262 261 258 259 259 246 244 246 248 248 247 244 243 242 241 241 242 247 254
253 251 269 280 307 308 293 329 316 110 257 259 250 249 240 220 207 228 253 255 253 315 341 346 285 258 255 259 258 254 256 257 261 263 261 259 244 243 245 249 250 247 245 243 243 244 244 245 250
252 260 266 333 6 287 282 50 173 245 276 266 258 268 276 258 254 257 260 256 252 250 250 263 285 302 296 270 253 257 262 264 260 261 263 266 250 242 244 243 246 249 247 245 244 245 246 246 249
257 264 267 181 8 52 14 175 289 268 282 280 275 271 275 275 264 263 263 265 260 258 263 261 269 275 277 293 287 264 258 259 261 263 262 265 259 246 239 242 242 244 246 246 244 245 247 249 252
75 96 139 19 1 348 344 306 294 279 286 293 301 302 296 281 276 268 271 268 269 270 265 263 265 269 274 277 278 278 268 262 259 260 260 260 258 255 247 236 239 240 242 245 247 247 248 251 253
66 28 358 352 339 335 328 313 302 302 308 309 311 305 290 282 275 269 268 269 268 268 266 269 267 266 267 269 273 278 272 269 263 254 254 258 257 256 254 245 235 237 239 240 243 245 247 250 253
334 332 344 338 332 324 323 314 308 317 317 313 308 309 283 270 262 258 259 259 267 272 272 269 267 264 267 271 268 271 273 276 268 266 254 250 254 257 258 259 244 235 235 237 240 244 246 249 250
292 297 295 319 316 307 310 313 302 308 311 287 291 300 284 274 270 268 270 264 264 268 269 270 269 269 264 270 271 269 270 275 271 265 269 256 247 252 257 262 261 239 235 234 238 242 245 248 249
264 283 306 307 310 310 309 304 297 288 289 278 295 288 282 275 273 275 275 275 272 267 264 268 272 273 272 273 271 271 269 270 270 263 257 259 254 247 245 250 255 257 238 235 235 238 241 244 247
294 299 308 312 315 310 308 286 280 274 271 283 285 297 313 313 302 291 280 275 271 272 271 270 269 267 266 272 275 274 274 269 266 265 262 263 261 258 250 242 246 250 255 236 236 236 240 240 247
277 288 306 313 314 311 302 280 292 256 259 272 285 291 296 311 315 308 292 286 287 281 282 280 272 272 269 270 269 268 268 266 265 261 261 258 257 261 251 246 239 246 250 257 231 236 238 240 244
300 301 310 311 301 296 263 279 289 287 262 273 292 315 320 322 321 323 319 310 306 305 296 289 279 272 268 269 270 269 269 262 260 256 257 258 255 253 254 246 240 239 245 245 242 235 236 238 242
315 310 312 292 284 247 214 3 292 277 278 288 310 323 327 325 324 323 321 320 311 307 293 286 283 280 279 275 272 276 273 261 253 255 254 253 256 255 250 247 243 240 240 240 242 237 233 236 240
317 336 333 342 344 231 298 312 272 302 300 314 318 326 325 327 328 325 322 325 322 305 290 287 288 287 283 280 276 275 274 267 259 251 248 247 251 252 252 250 252 237 237 237 239 239 233 230 236
348 4 346 219 270 294 307 237 308 317 307 313 318 324 326 329 326 327 323 324 325 314 301 292 294 292 288 286 283 278 271 268 264 263 249 244 245 249 249 253 254 246 235 235 235 239 235 231 230
323 337 351 297 314 309 299 291 313 328 309 316 320 326 330 330 328 328 328 328 326 320 309 303 296 295 296 296 287 280 271 267 258 261 257 245 241 242 242 243 250 251 242 234 237 235 228 232 226
69 46 6 2 23 301 290 296 302 329 327 326 333 332 331 333 332 329 330 328 328 322 316 307 300 299 297 296 297 281 266 261 257 253 253 251 245 237 238 238 243 247 246 234 238 246 242 215 227
152 40 22 344 253 195 296 279 321 336 332 335 335 334 335 333 331 331 331 327 327 323 315 324 316 301 294 298 304 288 265 253 256 258 262 255 243 230 227 233 238 246 238 230 236 238 241 231 238
225 309 336 334 284 252 274 285 322 339 335 335 335 342 338 336 332 333 332 330 328 324 322 316 320 311 303 309 306 297 275 256 260 267 261 250 218 215 218 224 237 240 226 231 229 235 238 228 222
Height
3140 3142 3144 3146 3151 3147 3148 3151 3151 3150 3149 3149 3148 3150 3153 3152 3154 3158 3155 3155 3155 3156 3156 3156 3157 3159 3161 3162 3164 3166 3168 3169 3171 3173 3175 3175 3177 3178 3178 3178 3179 3180 3181 3182 3183 3183 3184 3184 3184
3139 3141 3143 3144 3147 3146 3148 3149 3149 3149 3149 3149 3150 3152 3153 3154 3154 3155 3156 3156 3157 3157 3156 3157 3158 3160 3161 3163 3164 3167 3168 3170 3171 3173 3175 3176 3177 3178 3179 3179 3180 3180 3181 3182 3183 3184 3184 3184 3184
3139 3140 3143 3143 3144 3147 3148 3148 3148 3149 3149 3150 3151 3152 3152 3152 3154 3155 3156 3156 3157 3157 3157 3158 3158 3160 3161 3162 3164 3166 3168 3170 3171 3173 3174 3175 3176 3178 3179 3180 3181 3181 3182 3183 3183 3183 3184 3184 3184
3136 3139 3142 3142 3144 3146 3147 3147 3146 3147 3148 3148 3149 3151 3151 3152 3153 3154 3155 3156 3156 3157 3157 3158 3159 3161 3161 3162 3164 3165 3166 3168 3170 3172 3173 3175 3176 3177 3179 3180 3180 3181 3182 3182 3183 3183 3184 3184 3183
3135 3136 3138 3141 3143 3145 3147 3146 3146 3145 3146 3146 3148 3149 3149 3150 3151 3153 3153 3154 3155 3156 3157 3158 3159 3159 3160 3161 3163 3164 3165 3167 3169 3170 3172 3174 3175 3176 3177 3178 3180 3181 3181 3182 3182 3182 3182 3182 3182
3133 3135 3136 3139 3142 3144 3146 3146 3146 3145 3146 3146 3148 3148 3148 3148 3149 3151 3152 3153 3154 3154 3155 3156 3157 3158 3159 3160 3162 3163 3164 3166 3167 3168 3170 3172 3173 3175 3176 3177 3178 3179 3180 3180 3180 3181 3180 3180 3180
3131 3133 3134 3137 3140 3143 3144 3145 3146 3146 3146 3146 3147 3147 3147 3148 3148 3148 3150 3151 3152 3153 3153 3154 3155 3156 3157 3158 3160 3161 3163 3164 3166 3167 3168 3169 3172 3173 3174 3174 3176 3176 3177 3178 3179 3179 3178 3178 3179
3129 3131 3133 3136 3138 3140 3141 3142 3144 3145 3146 3146 3145 3145 3145 3146 3147 3147 3148 3148 3149 3149 3150 3152 3153 3153 3154 3156 3157 3158 3159 3161 3163 3165 3166 3167 3168 3170 3171 3172 3173 3174 3174 3175 3176 3176 3176 3176 3176
3127 3131 3132 3135 3136 3137 3138 3140 3141 3143 3144 3145 3145 3145 3146 3144 3144 3145 3146 3146 3147 3147 3148 3148 3150 3151 3152 3152 3153 3154 3155 3157 3158 3160 3162 3164 3166 3167 3168 3169 3170 3171 3172 3172 3173 3174 3174 3174 3174
3126 3129 3132 3134 3135 3135 3137 3138 3140 3142 3142 3143 3144 3145 3144 3144 3144 3143 3143 3143 3143 3144 3146 3146 3146 3147 3149 3150 3151 3151 3151 3152 3153 3155 3157 3160 3162 3164 3165 3166 3167 3168 3169 3170 3170 3170 3170 3171 3171
3126 3129 3130 3132 3132 3133 3135 3137 3137 3138 3139 3140 3141 3141 3140 3141 3142 3142 3142 3140 3139 3138 3139 3141 3143 3143 3145 3147 3148 3149 3150 3150 3150 3151 3152 3154 3156 3159 3161 3163 3164 3165 3166 3167 3167 3168 3167 3167 3168
3127 3128 3130 3131 3132 3133 3134 3134 3134 3136 3136 3135 3135 3135 3136 3137 3137 3136 3136 3135 3135 3134 3133 3136 3138 3138 3139 3140 3142 3144 3145 3145 3147 3147 3147 3148 3150 3153 3156 3159 3161 3162 3163 3164 3164 3164 3164 3163 3164
3126 3127 3129 3130 3132 3131 3131 3131 3132 3134 3131 3131 3131 3131 3132 3132 3132 3132 3132 3132 3131 3131 3131 3131 3132 3133 3133 3134 3136 3137 3138 3139 3141 3142 3143 3143 3144 3146 3149 3153 3155 3158 3159 3159 3160 3160 3160 3160 3161
3124 3126 3128 3130 3130 3128 3129 3129 3130 3128 3129 3129 3129 3129 3129 3129 3130 3130 3129 3129 3129 3128 3127 3127 3127 3127 3127 3127 3129 3130 3132 3133 3135 3136 3138 3138 3138 3140 3142 3145 3149 3152 3154 3154 3155 3155 3155 3156 3156
3123 3125 3127 3129 3128 3127 3128 3129 3126 3127 3126 3126 3126 3126 3126 3126 3126 3127 3127 3125 3124 3125 3124 3123 3122 3122 3121 3121 3122 3123 3124 3125 3127 3129 3130 3131 3132 3132 3134 3138 3141 3145 3148 3149 3149 3150 3150 3152 3153
3123 3125 3126 3127 3126 3126 3126 3126 3124 3123 3123 3122 3122 3121 3121 3121 3121 3120 3120 3119 3119 3118 3119 3119 3118 3117 3116 3115 3116 3117 3117 3117 3119 3121 3123 3124 3125 3126 3126 3129 3133 3137 3140 3142 3144 3145 3146 3147 3148
3124 3124 3124 3125 3124 3123 3123 3122 3121 3119 3118 3117 3117 3116 3115 3114 3114 3114 3113 3113 3112 3112 3111 3111 3111 3110 3110 3110 3109 3109 3110 3111 3111 3112 3114 3118 3118 3118 3119 3122 3125 3129 3132 3134 3137 3138 3140 3142 3143
3123 3124 3124 3123 3123 3120 3119 3118 3117 3116 3115 3114 3113 3113 3111 3110 3109 3107 3107 3106 3106 3105 3104 3103 3103 3102 3103 3102 3102 3101 3101 3103 3104 3105 3106 3108 3110 3112 3113 3114 3118 3121 3123 3127 3129 3132 3134 3137 3138
3123 3123 3123 3122 3121 3118 3116 3114 3114 3112 3111 3110 3110 3109 3108 3107 3105 3104 3102 3101 3100 3098 3097 3095 3095 3095 3095 3094 3093 3093 3093 3094 3094 3096 3098 3099 3101 3103 3106 3107 3109 3113 3115 3119 3122 3125 3128 3130 3132
3121 3121 3121 3120 3119 3117 3114 3110 3108 3108 3107 3107 3106 3105 3104 3103 3102 3100 3097 3095 3093 3091 3089 3088 3086 3085 3084 3083 3083 3082 3082 3083 3085 3086 3087 3090 3092 3092 3096 3100 3102 3106 3108 3112 3114 3116 3120 3124 3126
3119 3119 3119 3117 3115 3113 3109 3106 3105 3105 3104 3103 3102 3101 3100 3097 3095 3092 3089 3087 3084 3082 3080 3079 3077 3075 3074 3072 3070 3069 3069 3070 3072 3076 3079 3081 3084 3085 3086 3089 3094 3098 3100 3103 3106 3109 3113 3116 3119
3117 3117 3116 3115 3112 3109 3108 3105 3101 3101 3102 3101 3100 3098 3096 3092 3089 3085 3081 3078 3075 3072 3069 3066 3064 3063 3062 3060 3058 3056 3055 3056 3060 3063 3068 3071 3074 3076 3076 3079 3084 3088 3093 3092 3097 3102 3105 3109 3112
3117 3115 3114 3112 3108 3107 3106 3105 3100 3099 3100 3099 3098 3095 3092 3088 3082 3078 3073 3069 3066 3061 3058 3055 3053 3050 3049 3048 3046 3045 3043 3043 3046 3050 3054 3059 3063 3067 3068 3070 3073 3079 3083 3087 3087 3093 3097 3101 3105
3114 3113 3111 3107 3105 3104 3103 3105 3098 3098 3098 3096 3095 3092 3087 3082 3077 3072 3067 3062 3057 3053 3048 3045 3042 3041 3039 3037 3036 3033 3031 3031 3032 3036 3042 3047 3053 3056 3059 3061 3064 3070 3074 3078 3082 3086 3088 3094 3098
3112 3110 3109 3108 3107 3105 3103 3103 3097 3097 3095 3094 3090 3087 3083 3077 3071 3064 3058 3053 3048 3042 3039 3036 3033 3032 3029 3027 3026 3025 3021 3020 3020 3023 3027 3033 3040 3044 3048 3053 3056 3059 3065 3070 3074 3077 3080 3085 3090
3111 3112 3112 3119 3114 3106 3102 3099 3097 3096 3094 3092 3090 3085 3079 3072 3065 3058 3052 3047 3041 3036 3032 3027 3024 3021 3019 3016 3015 3014 3013 3011 3010 3010 3014 3020 3026 3033 3039 3044 3047 3049 3053 3059 3064 3068 3073 3077 3081
3112 3112 3113 3111 3110 3109 3102 3099 3097 3095 3093 3091 3087 3081 3074 3067 3058 3051 3046 3040 3034 3029 3025 3019 3015 3013 3009 3006 3003 3001 2999 2998 2998 2999 3001 3004 3012 3020 3028 3034 3037 3038 3042 3048 3054 3058 3065 3070 3074
3112 3113 3112 3112 3115 3110 3101 3097 3095 3093 3091 3087 3081 3075 3068 3061 3052 3045 3040 3034 3028 3021 3015 3011 3006 3001 2997 2993 2988 2986 2985 2986 2985 2986 2988 2991 2997 3006 3016 3024 3027 3029 3032 3038 3045 3050 3055 3059 3066
3112 3112 3113 3113 3112 3110 3107 3096 3094 3092 3088 3082 3077 3071 3063 3055 3047 3040 3034 3028 3020 3014 3009 3002 2996 2990 2986 2981 2976 2973 2968 2972 2973 2973 2975 2976 2981 2992 3004 3013 3016 3019 3023 3029 3036 3042 3048 3051 3059
3110 3110 3112 3111 3111 3108 3106 3094 3091 3089 3085 3080 3073 3067 3059 3051 3043 3037 3029 3021 3014 3008 3001 2993 2986 2978 2973 2968 2965 2961 2958 2961 2962 2963 2964 2965 2970 2983 2993 3000 3007 3009 3014 3022 3027 3033 3038 3042 3050